SCP
3 3 3 2 2 2 2 2 2 2 1 2 2 3 3 2 2 2 1 1 1 0 0 0 0 0 1 1 1 2 2 3 3 2 2 1 1 1
4 4 3 2 2 2 2 2 2 3 3 3 3 3 3 3 3 2 1 1 1 0 0 0 0 0 0 1 1 1 2 2 2 1 1 1 1 1
6 5 4 3 2 2 2 2 3 4 4 4 4 3 3 2 2 1 1 1 1 0 0 0 0 0 0 0 0 1 1 1 1 0 0 0 0 1
6 6 4 3 3 3 2 2 3 4 4 4 3 2 1 1 1 1 0 0 1 1 0 0 0 0 0 0 0 0 0 0 0 0 0 0 0 0
6 5 4 3 3 3 2 2 2 2 2 2 2 1 1 1 1 0 0 0 0 0 0 0 0 0 0 0 0 0 0 0 0 0 0 0 0 0
4 3 3 3 2 2 2 2 2 2 2 2 2 2 2 1 1 1 0 0 0 0 0 0 0 0 0 0 0 0 0 0 0 0 0 0 0 0
2 1 2 2 2 2 2 2 2 2 3 3 3 3 2 1 1 1 0 0 0 0 0 0 0 0 0 0 0 0 0 0 0 0 0 0 0 0
1 1 1 2 2 2 2 1 1 2 2 2 3 2 2 1 1 1 0 0 0 0 0 0 0 0 0 0 0 0 0 0 0 0 0 0 0 0
1 1 1 1 2 2 2 1 1 1 1 2 2 2 2 1 1 1 1 0 0 0 0 0 0 0 0 0 0 0 0 0 0 0 0 0 0 0
2 1 1 1 1 2 2 2 1 1 1 1 1 2 1 1 1 1 1 1 0 0 0 0 0 0 0 0 0 0 0 0 0 0 0 0 0 0
2 2 1 1 1 1 2 2 2 1 1 1 1 1 1 1 1 1 1 1 0 0 0 0 0 0 0 0 0 0 0 0 0 0 0 0 0 0
2 2 1 1 0 1 1 2 2 1 1 1 1 1 1 1 1 1 1 1 0 0 0 0 0 0 0 0 0 0 0 0 0 0 0 0 0 0
2 2 2 1 0 0 1 1 1 1 1 1 1 1 0 0 0 1 1 0 0 0 0 1 0 0 0 0 0 0 0 0 0 0 0 0 0 0
1 2 2 1 0 0 0 0 1 1 1 1 1 1 1 0 0 0 0 0 0 0 0 1 0 0 0 0 0 0 0 0 0 0 0 0 0 0
1 1 1 0 0 0 0 0 0 0 1 1 1 1 1 1 1 1 0 0 0 0 0 0 0 0 0 0 0 0 0 0 0 0 0 0 0 0
0 0 0 0 0 0 0 0 0 0 1 1 1 1 1 1 1 1 1 1 1 0 0 0 0 0 0 0 0 0 0 0 0 0 0 0 0 0
0 0 0 0 0 0 0 0 0 0 1 1 1 1 1 1 1 1 1 1 1 1 1 0 0 0 0 0 0 0 0 0 0 0 0 0 0 0
0 1 1 0 0 0 0 0 0 0 1 1 1 1 1 1 1 1 2 2 1 1 1 0 0 0 0 0 0 0 0 0 0 0 0 0 0 0
0 1 1 1 1 0 0 1 1 1 1 1 1 1 1 2 2 2 2 2 1 1 1 0 0 0 0 0 0 0 0 0 0 0 0 0 0 0
0 0 1 1 1 1 1 1 1 1 2 2 2 2 2 2 2 2 2 1 1 1 1 0 0 0 0 0 0 0 0 0 0 0 0 0 0 0
0 0 0 0 0 1 1 1 1 1 2 2 2 2 2 2 2 2 2 1 1 1 1 0 0 0 0 0 0 0 0 0 0 0 0 0 0 0
0 0 0 0 0 0 0 0 1 1 2 2 2 2 2 2 2 2 2 2 1 1 1 0 0 0 0 0 0 0 0 0 0 0 0 0 0 0
0 0 0 0 0 0 0 0 1 1 1 2 2 3 2 2 2 2 2 2 1 1 0 0 0 0 0 0 0 0 0 0 0 0 0 0 0 0
Wind_Speed
2 2 2 1 1 1 2 3 3 2 3 3 2 2 1 2 3 2 3 5 6 6 7 7 7 7 7 7 6 6 6 6 7 8 8 9 9 9
2 1 1 1 1 1 1 1 2 3 3 3 2 2 1 1 3 2 3 5 7 7 7 7 7 7 7 7 7 7 7 6 7 7 8 8 8 9
2 1 2 1 1 1 1 1 1 2 3 2 1 1 1 1 1 2 2 3 4 7 8 8 8 8 8 8 8 8 8 7 7 7 8 8 8 8
2 2 2 2 1 1 1 1 1 2 2 2 2 1 2 2 2 2 2 2 3 5 7 8 8 8 8 8 8 8 8 8 8 8 8 8 8 8
3 3 3 2 2 2 2 2 1 1 2 2 2 1 1 1 1 2 2 2 3 3 4 6 7 8 8 8 8 8 9 9 9 8 8 7 7 7
3 4 4 4 4 3 2 2 2 1 1 1 1 1 1 1 0 1 2 2 2 2 2 3 4 6 7 8 8 9 9 9 9 9 8 8 8 7
3 3 3 4 5 4 3 3 2 2 1 2 1 0 1 0 1 1 1 2 2 1 1 2 2 2 3 6 7 8 8 9 9 9 9 9 9 8
3 3 3 3 4 4 4 4 5 4 3 2 2 2 3 2 1 1 1 1 3 2 0 3 1 2 3 3 5 7 8 8 8 8 9 9 9 9
4 3 3 3 3 2 3 4 4 5 5 4 4 4 4 4 3 2 2 3 3 3 1 3 2 3 3 4 6 7 7 7 7 8 8 9 9 9
4 4 4 3 3 3 3 2 3 3 4 4 4 5 4 4 4 4 4 2 3 2 1 2 2 3 3 3 5 6 7 7 7 8 9 9 9 9
4 4 4 4 5 5 3 3 2 3 4 4 5 5 5 6 4 2 1 1 2 3 1 2 2 2 2 3 3 5 5 6 7 7 8 8 9 8
2 2 4 5 5 6 5 4 4 5 3 2 3 3 4 5 6 5 4 3 2 3 2 2 2 1 2 3 2 2 2 4 6 7 7 7 7 4
3 2 3 5 6 7 6 5 7 5 3 3 3 2 2 2 3 4 4 5 4 4 3 3 2 1 2 3 3 2 2 2 2 4 5 7 7 6
3 3 4 6 6 7 6 6 7 5 2 2 2 3 3 3 3 3 4 5 5 6 4 4 3 3 2 2 3 3 2 2 2 3 3 4 5 7
3 5 5 6 5 5 7 7 5 3 3 3 4 4 3 3 3 2 2 2 3 4 4 4 4 3 3 4 3 3 3 3 2 3 3 3 3 3
2 3 4 4 3 4 4 4 3 3 4 4 3 3 2 2 2 2 2 1 2 3 3 3 4 5 4 5 4 4 3 3 2 3 3 3 3 3
2 0 0 1 2 2 2 2 2 2 3 3 3 2 2 2 2 2 2 1 2 3 3 3 2 3 5 4 4 4 4 4 4 3 3 3 4 4
3 2 2 2 3 3 2 2 2 2 3 3 3 3 3 3 3 2 2 2 3 3 3 3 2 2 2 3 5 5 4 4 3 3 3 3 4 4
3 2 3 3 3 2 2 2 3 3 2 3 3 3 3 3 3 3 2 2 3 3 3 2 1 1 2 4 4 4 3 3 2 2 3 3 4 4
2 3 3 3 3 3 2 2 2 2 2 2 3 3 3 3 3 3 3 3 3 3 2 2 2 3 4 5 4 4 4 3 3 3 3 2 3 3
2 2 3 3 2 2 2 2 2 2 2 2 2 3 3 3 3 3 3 4 3 2 3 4 4 5 3 1 2 3 3 3 4 3 2 2 2 2
2 2 2 2 2 2 2 2 1 1 2 2 2 2 3 3 3 3 3 3 3 3 4 4 3 2 2 3 4 4 4 3 3 2 3 4 3 3
2 2 2 1 1 1 1 1 1 1 1 1 1 1 2 2 2 3 3 3 3 3 3 3 2 2 2 3 3 3 4 4 2 2 2 4 4 4
Wind_Direction
225 224 218 228 204 195 168 161 161 199 263 268 275 269 236 207 216 202 209 216 219 226 230 231 230 231 231 232 233 233 233 230 231 229 231 232 232 235
214 208 228 235 222 180 171 169 168 175 223 252 248 269 257 232 220 214 225 227 228 227 226 227 228 232 232 233 234 233 232 232 233 235 235 235 236 236
232 219 236 226 218 200 163 158 175 166 207 265 262 278 261 255 262 255 242 227 230 231 230 229 228 231 234 235 236 237 235 232 232 236 238 238 239 240
225 211 234 225 216 207 181 194 200 180 178 229 282 289 260 249 237 246 257 239 234 238 236 236 233 232 235 237 240 241 240 239 237 238 241 242 239 237
214 212 221 208 225 221 201 202 206 190 167 178 247 261 269 274 292 286 280 282 263 252 243 241 239 238 239 242 244 245 244 241 240 240 243 245 240 237
219 216 214 206 215 214 209 216 207 191 174 174 222 268 276 285 169 274 305 305 290 294 280 258 249 247 246 246 246 244 243 241 239 237 236 237 237 237
226 223 220 213 209 207 201 201 192 190 190 196 217 240 279 314 257 254 266 296 293 285 293 283 269 259 255 251 247 241 236 234 234 233 231 232 234 238
220 229 229 219 223 223 215 205 190 189 200 201 207 214 230 225 219 222 233 302 295 287 265 283 266 265 262 247 239 235 233 232 232 233 235 233 233 236
214 217 228 224 214 213 226 229 230 225 206 199 211 220 220 215 200 216 217 216 243 255 198 275 273 264 264 260 245 240 241 242 241 240 241 240 238 238
219 211 212 222 223 206 205 223 243 245 229 220 220 228 224 212 200 208 221 240 267 264 183 249 278 268 275 271 262 252 246 247 247 244 245 245 242 240
230 221 208 213 227 206 188 209 252 272 259 236 230 235 235 221 201 177 189 199 273 274 227 207 264 280 284 278 276 264 260 262 260 255 251 248 244 241
237 228 220 219 225 206 195 200 229 251 256 269 269 271 254 237 219 198 192 195 227 261 241 191 237 271 304 288 278 279 275 275 272 263 254 249 240 228
224 229 240 233 232 222 213 213 227 234 234 236 250 266 274 255 237 221 206 196 207 235 223 176 209 214 228 282 298 276 252 258 274 270 254 249 237 214
222 228 236 239 237 234 229 233 235 225 214 228 244 252 251 253 251 234 224 221 220 229 224 188 204 210 215 255 275 283 273 257 250 262 264 257 247 236
225 234 242 246 249 248 242 238 229 209 203 220 236 244 241 243 248 255 254 246 253 251 242 220 210 216 207 227 245 253 275 279 250 249 255 245 241 232
238 246 246 249 255 252 255 246 225 207 202 218 230 241 247 249 243 235 244 255 272 285 279 249 224 215 231 240 237 250 245 250 262 255 258 263 253 233
172 149 250 282 285 283 273 259 235 213 216 221 220 233 236 236 244 236 224 219 236 261 283 292 270 239 231 230 241 248 248 251 250 247 248 263 261 244
152 186 218 228 237 243 245 252 240 225 223 217 212 217 224 229 241 239 221 216 234 246 255 265 288 324 325 282 227 236 247 250 256 247 230 248 268 260
166 205 217 224 232 235 231 229 235 236 221 209 217 223 224 228 230 239 235 233 241 247 252 246 234 220 262 280 281 230 227 252 258 260 246 236 252 265
202 206 217 222 224 227 230 234 241 237 220 220 224 229 227 227 232 238 238 236 239 247 259 255 233 223 229 244 258 276 249 233 241 254 262 258 264 273
226 227 223 222 228 225 225 231 235 235 228 222 231 235 230 223 229 233 234 239 236 238 249 256 251 251 245 238 266 278 281 260 239 232 235 243 265 273
217 227 231 220 215 219 222 228 242 256 258 243 244 243 234 220 224 233 232 232 235 237 248 262 271 261 229 234 255 266 280 294 292 272 249 224 214 225
204 203 214 227 220 218 219 231 241 259 265 263 253 244 242 239 233 227 232 237 241 245 250 262 272 263 254 247 253 262 269 279 289 305 308 304 265 249